カタログに戻る

USA 40 R/B DEB

運用中HEO
NORAD 23362·DEBRIS·🇺🇸 United States

打ち上げ Aug 8, 1989 から Cape Canaveral Space Force Station

Loading…

次のパス (今後24時間)

TLE

最新Source: Space-Track

元期: Sep 14, 2026, 14:08 UTC

1 23362U 89061AJ  26257.58899146  .00005200  00000-0  48353-2 0  9994
2 23362  56.8723 322.9559 2603367 187.5005 167.8061  9.55660458256669

AllMySatでUSA 40 R/B DEBをリアルタイム追跡

Download on the App Store